Location: Quedlinburg
(51.7921°N, 11.1414°E)
Time: 04:53:46
(UTC+02:00)

STRAND 1 - Pass Details

Date: 19 March 2026
Orbit: 761 x 775 km, 98.4° (Epoch: 16 April)

Event Time Altitude Azimuth Distance (km) Brightness Sun altitude
Rises 05:15:42 0° 170° (S) 3,234 ? -10.8°
Reaches altitude 10° 05:18:01 10° 173° (S) 2,310 ? -10.5°
Maximum altitude 05:23:06 70° 257° (WSW) 822 ? -9.7°
Drops below altitude 10° 05:28:12 10° 341° (NNW) 2,318 ? -8.9°
Sets 05:30:31 0° 344° (NNW) 3,247 ? -8.6°
